Billings, MT

9:54 PM MDT on July 21, 2017 (GMT -0600)
Billings Logan International

Weather History for KBIL - June, 2014

Change the Weather History Date:

Wednesday, June 11, 2014

  Actual Average Record
Temperature  
Mean Temperature 57 °F 63 °F  
Max Temperature 64 °F 75 °F 93 °F (1991)
Min Temperature 50 °F 51 °F 34 °F (2008)
Degree Days  
Heating Degree Days 8 4  
Month to date heating degree days 55 54  
Since 1 June heating degree days 55 54  
Since 1 July heating degree days 7132 6740  
Cooling Degree Days 0 2  
Month to date cooling degree days 3 17  
Year to date cooling degree days 19 34  
Since 1 June cooling degree days 3 17  
Growing Degree Days 7 (Base 50)    
Moisture  
Dew Point 45 °F    
Average Humidity 74    
Maximum Humidity 96    
Minimum Humidity 51    
Precipitation  
Precipitation 0.29 in 0.07 in 1.08 in (1946)
Month to date precipitation 0.89 0.86  
Year to date precipitation 8.72 6.72  
Snow  
Snow 0.00 in 0.00 in T in (1949)
Month to date snowfall T 0.0  
Since 1 June snowfall T 0.0  
Since 1 July snowfall 103.5 55.0  
Snow Depth 0.00 in    
Sea Level Pressure  
Sea Level Pressure 30.02 in    
Wind  
Wind Speed 9 mph (North)    
Max Wind Speed 23 mph    
Max Gust Speed 27 mph    
Visibility 10 miles    
Events Rain    
T = Trace of Precipitation, MM = Missing Value Source: NWS Daily Summary

Daily Weather History Graph

Daily Weather History Graph

Search for Another Location

Airport or City:

Trip Planner

Search our weather history database for the weather conditions in past years. The results will help you decide how hot, cold, wet, or windy it might be!

Date:

Astronomy

Jun. 11, 2014 Rise Set
Actual Time 5:23 AM MDT 9:04 PM MDT
Civil Twilight 4:45 AM MDT 9:42 PM MDT
Nautical Twilight 3:54 AM MDT 10:33 PM MDT
Astronomical Twilight 2:45 AM MDT 11:42 PM MDT
Moon 7:32 PM MDT (6/11) 4:22 AM MDT (6/11)
Length of Visible Light 16h 56m
Length of Day
15h 40m
Waxing Gibbous, 97% of the Moon is Illuminated
Jun 11
Waxing Gibbous
Jun 12
Full
Jun 19
Last Quarter
Jun 27
New
Jul 5
First Quarter

Hourly Weather History & Observations

Time (MDT) Temp. Dew Point Humidity Pressure Visibility Wind Dir Wind Speed Gust Speed Precip Events Conditions
12:53 AM 54.0 °F 51.1 °F 90% 29.86 in 10.0 mi North 15.0 mph - 0.02 in Rain Light Rain
1:53 AM 52.0 °F 50.0 °F 93% 29.91 in 6.0 mi North 12.7 mph - 0.12 in Rain Rain
1:58 AM 51.8 °F 50.0 °F 94% 29.96 in 6.0 mi North 11.5 mph - N/A Rain Heavy Rain
2:53 AM 51.1 °F 46.0 °F 83% 29.90 in 10.0 mi Calm Calm - 0.18 in Rain Light Rain
3:53 AM 51.1 °F 46.0 °F 83% 29.93 in 10.0 mi West 8.1 mph - 0.00 in   Overcast
4:53 AM 51.1 °F 46.9 °F 86% 29.93 in 10.0 mi WNW 8.1 mph - 0.00 in   Mostly Cloudy
5:26 AM 51.1 °F 48.0 °F 89% 29.97 in 10.0 mi NNW 8.1 mph - N/A   Mostly Cloudy
5:53 AM 51.1 °F 48.0 °F 89% 29.94 in 10.0 mi NNW 11.5 mph - N/A   Mostly Cloudy
6:53 AM 51.1 °F 46.0 °F 83% 29.95 in 10.0 mi North 9.2 mph - N/A   Mostly Cloudy
7:53 AM 53.1 °F 46.9 °F 80% 29.96 in 10.0 mi North 9.2 mph - N/A   Scattered Clouds
8:53 AM 55.9 °F 45.0 °F 67% 29.98 in 10.0 mi North 6.9 mph - N/A   Scattered Clouds
9:53 AM 59.0 °F 44.1 °F 58% 29.99 in 10.0 mi NW 8.1 mph - N/A   Scattered Clouds
10:53 AM 59.0 °F 45.0 °F 60% 30.00 in 10.0 mi NW 6.9 mph - N/A   Mostly Cloudy
11:53 AM 61.0 °F 43.0 °F 52% 30.01 in 10.0 mi WNW 8.1 mph - N/A   Mostly Cloudy
12:28 PM 57.9 °F 45.0 °F 62% 30.05 in 10.0 mi NE 15.0 mph - N/A   Scattered Clouds
12:53 PM 60.1 °F 45.0 °F 57% 30.02 in 10.0 mi NNE 15.0 mph - N/A   Scattered Clouds
1:53 PM 61.0 °F 42.1 °F 50% 30.02 in 10.0 mi Variable 3.5 mph - N/A   Mostly Cloudy
2:53 PM 57.2 °F 44.6 °F 63% 30.07 in 10.0 mi North 10.4 mph - N/A   Mostly Cloudy
3:53 PM 57.0 °F 46.0 °F 67% 30.06 in 10.0 mi North 9.2 mph 19.6 mph 0.00 in   Mostly Cloudy
4:53 PM 61.0 °F 46.0 °F 58% 30.04 in 10.0 mi North 15.0 mph - N/A   Scattered Clouds
5:53 PM 59.0 °F 46.9 °F 64% 30.08 in 10.0 mi NE 15.0 mph - N/A   Scattered Clouds
6:53 PM 59.0 °F 44.1 °F 58% 30.09 in 10.0 mi NE 19.6 mph 25.3 mph N/A   Scattered Clouds
7:53 PM 55.9 °F 43.0 °F 62% 30.10 in 10.0 mi NE 15.0 mph - N/A   Scattered Clouds
8:53 PM 54.0 °F 43.0 °F 66% 30.12 in 10.0 mi NE 9.2 mph - N/A   Scattered Clouds
9:53 PM 52.0 °F 44.1 °F 74% 30.13 in 10.0 mi East 5.8 mph - N/A   Partly Cloudy
10:53 PM 52.0 °F 43.0 °F 71% 30.13 in 10.0 mi East 6.9 mph - N/A   Partly Cloudy
11:53 PM 51.1 °F 43.0 °F 74% 30.13 in 10.0 mi Calm Calm - N/A   Partly Cloudy